CHS3 LSZH-LSZB

Flight info

Callsign CHS3
Flight time 0h 22m
Altitude 7000
Route VEBIT T544 WIL/N0282F090 Z601 ROTOS
Aircraft E170/M-SDE3GILORVW/S

Departure

Time 2026-05-07 18:48
Airport Zürich Airport (LSZH)

Arrival

Time 2026-05-07 19:10
Airport Bern Airport (LSZB)
Time Latitude Longitude Altitude Speed Heading
2026-05-07 18:38 47.45532 8.56704 1398 ft 0 kts 325°
2026-05-07 18:44 47.45552 8.56683 1404 ft 12 kts 325°
2026-05-07 18:44 47.45587 8.56590 1398 ft 12 kts 275°
2026-05-07 18:45 47.45599 8.56417 1398 ft 16 kts 277°
2026-05-07 18:45 47.45618 8.56280 1402 ft 11 kts 313°
2026-05-07 18:45 47.45703 8.56277 1398 ft 15 kts
2026-05-07 18:45 47.45791 8.56290 1398 ft 11 kts
2026-05-07 18:46 47.45890 8.56304 1398 ft 23 kts
2026-05-07 18:46 47.46045 8.56321 1398 ft 20 kts
2026-05-07 18:46 47.46162 8.56345 1398 ft 15 kts
2026-05-07 18:46 47.46238 8.56299 1398 ft 6 kts 317°
2026-05-07 18:47 47.46239 8.56298 1398 ft 0 kts 317°
2026-05-07 18:47 47.46240 8.56297 1398 ft 3 kts 317°
2026-05-07 18:47 47.46464 8.55992 1405 ft 103 kts 317°
2026-05-07 18:47 47.47268 8.54886 1567 ft 203 kts 317°
2026-05-07 18:48 47.48402 8.53279 2416 ft 226 kts 317°
2026-05-07 18:48 47.49619 8.51574 3302 ft 256 kts 317°
2026-05-07 18:48 47.50923 8.49797 4201 ft 235 kts 324°
2026-05-07 18:48 47.52381 8.48765 4725 ft 238 kts 352°
2026-05-07 18:49 47.54028 8.48868 4907 ft 239 kts
2026-05-07 18:49 47.55681 8.48908 5000 ft 238 kts 348°
2026-05-07 18:49 47.57190 8.47948 5133 ft 238 kts 323°
2026-05-07 18:49 47.58265 8.46117 5308 ft 237 kts 295°
2026-05-07 18:50 47.58541 8.43750 5549 ft 236 kts 261°
2026-05-07 18:50 47.57974 8.41471 5734 ft 238 kts 248°
2026-05-07 18:50 47.57149 8.39389 5511 ft 234 kts 221°
2026-05-07 18:50 47.55643 8.38441 5260 ft 241 kts 185°
2026-05-07 18:51 47.54537 8.38402 5152 ft 239 kts 179°
2026-05-07 18:51 47.53628 8.38418 5101 ft 239 kts 180°
2026-05-07 18:51 47.51973 8.38314 5222 ft 233 kts 185°
2026-05-07 18:51 47.50344 8.38068 5699 ft 236 kts 187°
2026-05-07 18:52 47.48720 8.37714 6164 ft 237 kts 190°
2026-05-07 18:52 47.47092 8.37280 6602 ft 238 kts 191°
2026-05-07 18:52 47.44911 8.36617 6867 ft 262 kts 193°
2026-05-07 18:52 47.43669 8.36214 6938 ft 264 kts 193°
2026-05-07 18:53 47.41873 8.35609 6989 ft 266 kts 195°
2026-05-07 18:53 47.40238 8.34395 6994 ft 264 kts 217°
2026-05-07 18:53 47.38877 8.32589 6994 ft 263 kts 227°
2026-05-07 18:53 47.37710 8.30509 6996 ft 263 kts 234°
2026-05-07 18:54 47.36700 8.28270 6994 ft 262 kts 239°
2026-05-07 18:54 47.35802 8.25921 7002 ft 262 kts 242°
2026-05-07 18:54 47.34957 8.23538 7011 ft 262 kts 243°
2026-05-07 18:54 47.34134 8.21138 7012 ft 262 kts 243°
2026-05-07 18:55 47.33326 8.18772 7009 ft 262 kts 243°
2026-05-07 18:55 47.32490 8.16354 7011 ft 262 kts 242°
2026-05-07 18:55 47.31667 8.14001 7020 ft 261 kts 242°
2026-05-07 18:55 47.30826 8.11624 7018 ft 262 kts 242°
2026-05-07 18:56 47.29981 8.09251 7018 ft 261 kts 242°
2026-05-07 18:56 47.29134 8.06886 7027 ft 261 kts 242°
2026-05-07 18:56 47.28286 8.04522 7032 ft 261 kts 241°
2026-05-07 18:56 47.27405 8.02179 7033 ft 261 kts 240°
2026-05-07 18:57 47.26495 7.99866 7031 ft 261 kts 239°
2026-05-07 18:57 47.25571 7.97562 7037 ft 261 kts 239°
2026-05-07 18:57 47.24642 7.95264 6951 ft 263 kts 239°
2026-05-07 18:57 47.23705 7.92945 6505 ft 263 kts 238°
2026-05-07 18:58 47.22776 7.90646 6250 ft 260 kts 238°
2026-05-07 18:58 47.21853 7.88362 6134 ft 260 kts 238°
2026-05-07 18:58 47.20929 7.86075 6075 ft 260 kts 238°
2026-05-07 18:58 47.20004 7.83784 6080 ft 260 kts 238°
2026-05-07 18:59 47.19074 7.81504 6070 ft 260 kts 235°
2026-05-07 18:59 47.17752 7.79829 6081 ft 258 kts 201°
2026-05-07 18:59 47.15999 7.79278 6073 ft 258 kts 187°
2026-05-07 18:59 47.14210 7.79011 6065 ft 258 kts 184°
2026-05-07 19:00 47.12415 7.79008 6061 ft 258 kts 176°
2026-05-07 19:00 47.10620 7.79213 5981 ft 259 kts 174°
2026-05-07 19:00 47.08831 7.79472 5857 ft 258 kts 173°
2026-05-07 19:00 47.07039 7.79752 5723 ft 258 kts 173°
2026-05-07 19:01 47.05253 7.80031 5594 ft 258 kts 173°
2026-05-07 19:01 47.03462 7.80303 5466 ft 258 kts 173°
2026-05-07 19:01 47.01809 7.80552 5351 ft 259 kts 173°
2026-05-07 19:01 47.00045 7.80812 5226 ft 258 kts 173°
2026-05-07 19:02 46.98263 7.81067 5085 ft 257 kts 173°
2026-05-07 19:02 46.96479 7.81312 4971 ft 257 kts 173°
2026-05-07 19:02 46.94693 7.81481 4847 ft 257 kts 182°
2026-05-07 19:02 46.92919 7.81041 4722 ft 259 kts 191°
2026-05-07 19:03 46.91156 7.80437 4599 ft 261 kts 192°
2026-05-07 19:03 46.89402 7.79795 4465 ft 260 kts 193°
2026-05-07 19:03 46.87648 7.79135 4335 ft 260 kts 193°
2026-05-07 19:03 46.85904 7.78476 4271 ft 256 kts 193°
2026-05-07 19:04 46.84176 7.77816 4590 ft 258 kts 193°
2026-05-07 19:04 46.82450 7.77146 5013 ft 258 kts 195°
2026-05-07 19:04 46.80894 7.76297 5264 ft 224 kts 205°
2026-05-07 19:04 46.79704 7.75047 5152 ft 207 kts 227°
2026-05-07 19:05 46.78844 7.73412 4878 ft 199 kts 234°
2026-05-07 19:05 46.78058 7.71763 4578 ft 208 kts 235°
2026-05-07 19:05 46.77254 7.70002 4543 ft 201 kts 240°
2026-05-07 19:05 46.76847 7.68218 4623 ft 174 kts 263°
2026-05-07 19:06 46.76963 7.66455 4214 ft 180 kts 287°
2026-05-07 19:06 46.78558 7.63847 3553 ft 171 kts 329°
2026-05-07 19:06 46.79558 7.62989 3416 ft 161 kts 330°
2026-05-07 19:07 46.80509 7.62196 3303 ft 155 kts 331°
2026-05-07 19:07 46.81438 7.61459 3195 ft 149 kts 332°
2026-05-07 19:07 46.82282 7.60669 3110 ft 137 kts 323°
2026-05-07 19:07 46.82993 7.59818 2883 ft 132 kts 321°
2026-05-07 19:08 46.83811 7.58858 2897 ft 154 kts 323°
2026-05-07 19:08 46.84600 7.57974 2729 ft 136 kts 323°
2026-05-07 19:08 46.85334 7.57139 2510 ft 131 kts 323°
2026-05-07 19:08 46.86055 7.56264 2411 ft 130 kts 320°
2026-05-07 19:09 46.86738 7.55378 2187 ft 136 kts 321°
2026-05-07 19:09 46.87489 7.54466 2211 ft 144 kts 324°
2026-05-07 19:09 46.88216 7.53570 2124 ft 147 kts 321°
2026-05-07 19:09 46.88973 7.52666 2014 ft 133 kts 324°
2026-05-07 19:10 46.89661 7.51844 1883 ft 127 kts 322°
2026-05-07 19:10 46.90340 7.51025 1789 ft 129 kts 322°
2026-05-07 19:10 46.90974 7.50257 1677 ft 93 kts 320°
2026-05-07 19:10 46.91194 7.49984 1678 ft 1 kts 317°
2026-05-07 19:11 46.91241 7.49950 1685 ft 0 kts 18°
2026-05-07 19:11 46.91266 7.49981 1683 ft 5 kts 45°
2026-05-07 19:11 46.91282 7.50010 1677 ft 4 kts 57°
2026-05-07 19:11 46.91301 7.50064 1681 ft 4 kts 68°
2026-05-07 19:12 46.91310 7.50092 1679 ft 3 kts 64°
2026-05-07 19:12 46.91309 7.50104 1678 ft 0 kts 103°